Tracking 28348 objects as of 8-Dec-2023
HD Live streaming from Space Station
objects crossing your sky now

STARLINK-30877

Track STARLINK-30877 now!
10-day predictions
STARLINK-30877 is classified as:


NORAD ID: 58242
Int'l Code: 2023-171N
Perigee: 524.2 km
Apogee: 526.6 km
Inclination: 43.0 °
Period: 95.0 minutes
Semi major axis: 6896 km
RCS: Unknown
Launch date: November 8, 2023
Source: United States (US)
Launch site: AIR FORCE EASTERN TEST RANGE (AFETR)
Your satellite tracking list
Your tracking list is empty




NASA's NSSDC Master Catalog

Two Line Element Set (TLE):
1 58242U 23171N   23342.16667824  .00053866  00000-0  27527-2 0  9992
2 58242  43.0007  82.1448 0001742 263.7745 199.6945 15.15905120  5931
Source of the keplerian elements: AFSPC